Time,TemperatureF,DewpointF,PressureIn,WindDirection,WindDirectionDegrees,WindSpeedMPH,WindSpeedGustMPH,Humidity,HourlyPrecipIn,Conditions,Clouds,dailyrainin,SoftwareType,DateUTC
2013-12-15 00:00:00,25.1,23.4,29.69,SW,219,4.0,12.0,93,0.00,,OVC,0.00,VWS V14.01,2013-12-15 05:00:00,
2013-12-15 00:01:00,25.5,23.0,29.74,South,174,6.0,8.0,90,0.00,,,0.00,VWS V14.01,2013-12-15 05:01:00,
2013-12-15 00:03:00,25.5,23.0,29.74,South,191,3.0,4.0,90,0.00,,,0.00,VWS V14.01,2013-12-15 05:03:00,
2013-12-15 00:08:00,25.4,22.9,29.74,SSW,197,5.0,7.0,90,0.00,,,0.00,VWS V14.01,2013-12-15 05:08:00,
2013-12-15 00:14:00,25.4,23.1,29.74,SW,214,5.0,9.0,91,0.00,,,0.00,VWS V14.01,2013-12-15 05:14:00,
2013-12-15 00:19:00,25.4,23.1,29.73,SSW,203,1.0,9.0,91,0.00,,,0.00,VWS V14.01,2013-12-15 05:19:00,
2013-12-15 00:24:00,25.3,23.0,29.73,WSW,249,3.0,9.0,91,0.00,,,0.00,VWS V14.01,2013-12-15 05:24:00,
2013-12-15 00:29:00,25.2,23.2,29.72,SW,217,3.0,9.0,92,0.00,,,0.00,VWS V14.01,2013-12-15 05:29:00,
2013-12-15 00:30:00,25.0,23.5,29.67,WSW,242,4.0,12.0,94,0.00,,OVC,0.00,VWS V14.01,2013-12-15 05:30:00,
2013-12-15 00:34:00,25.2,23.2,29.72,SSW,192,4.0,5.0,92,0.00,,,0.00,VWS V14.01,2013-12-15 05:34:00,
2013-12-15 00:39:00,25.1,23.1,29.72,SW,225,3.0,8.0,92,0.00,,,0.00,VWS V14.01,2013-12-15 05:39:00,
2013-12-15 00:44:00,25.1,23.1,29.71,SE,125,1.0,8.0,92,0.00,,,0.00,VWS V14.01,2013-12-15 05:44:00,
2013-12-15 00:49:00,25.1,23.4,29.71,SSE,157,2.0,8.0,93,0.00,,,0.00,VWS V14.01,2013-12-15 05:49:00,
2013-12-15 00:54:00,25.1,23.4,29.70,South,188,3.0,11.0,93,0.00,,,0.00,VWS V14.01,2013-12-15 05:54:00,
2013-12-15 00:59:00,25.1,23.4,29.69,South,170,3.0,12.0,93,0.00,,,0.00,VWS V14.01,2013-12-15 05:59:00,
2013-12-15 01:00:00,25.1,23.6,29.65,SW,219,5.0,10.0,94,0.00,,OVC,0.00,VWS V14.01,2013-12-15 06:00:00,
2013-12-15 01:04:00,25.1,23.4,29.69,SW,219,4.0,7.0,93,0.00,,,0.00,VWS V14.01,2013-12-15 06:04:00,
2013-12-15 01:10:00,25.0,23.5,29.68,ESE,105,4.0,12.0,94,0.00,,,0.00,VWS V14.01,2013-12-15 06:10:00,
2013-12-15 01:15:00,25.1,23.6,29.68,SW,230,2.0,12.0,94,0.00,,,0.00,VWS V14.01,2013-12-15 06:15:00,
2013-12-15 01:20:00,25.0,23.5,29.68,South,185,2.0,12.0,94,0.00,,,0.00,VWS V14.01,2013-12-15 06:20:00,
2013-12-15 01:25:00,25.1,23.6,29.68,SW,231,3.0,12.0,94,0.00,,,0.00,VWS V14.01,2013-12-15 06:25:00,
2013-12-15 01:30:00,25.0,23.5,29.67,WSW,238,3.0,12.0,94,0.00,,,0.00,VWS V14.01,2013-12-15 06:30:00,
2013-12-15 01:35:00,25.1,23.6,29.67,SW,229,4.0,8.0,94,0.00,,,0.00,VWS V14.01,2013-12-15 06:35:00,
2013-12-15 01:40:00,25.1,23.6,29.67,SW,235,4.0,8.0,94,0.00,,,0.00,VWS V14.01,2013-12-15 06:40:00,
2013-12-15 01:45:00,25.1,23.6,29.66,SSW,212,1.0,8.0,94,0.00,,,0.00,VWS V14.01,2013-12-15 06:45:00,
2013-12-15 01:50:00,25.1,23.6,29.66,WSW,247,7.0,8.0,94,0.00,,,0.00,VWS V14.01,2013-12-15 06:50:00,
2013-12-15 01:56:00,25.1,23.6,29.66,SW,230,6.0,10.0,94,0.00,,,0.00,VWS V14.01,2013-12-15 06:56:00,
2013-12-15 02:00:00,25.3,24.1,29.63,SW,221,1.0,4.0,95,0.00,,OVC,0.00,VWS V14.01,2013-12-15 07:00:00,
2013-12-15 02:01:00,25.1,23.6,29.66,SW,225,4.0,10.0,94,0.00,,,0.00,VWS V14.01,2013-12-15 07:01:00,
2013-12-15 02:06:00,25.1,23.6,29.65,SSE,155,3.0,6.0,94,0.00,,,0.00,VWS V14.01,2013-12-15 07:06:00,
2013-12-15 02:11:00,25.1,23.6,29.65,SW,219,4.0,6.0,94,0.00,,,0.00,VWS V14.01,2013-12-15 07:11:00,
2013-12-15 02:16:00,25.1,23.6,29.65,South,170,2.0,6.0,94,0.00,,,0.00,VWS V14.01,2013-12-15 07:16:00,
2013-12-15 02:21:00,25.1,23.6,29.65,SW,215,3.0,6.0,94,0.00,,,0.00,VWS V14.01,2013-12-15 07:21:00,
2013-12-15 02:26:00,25.1,23.6,29.65,South,181,2.0,6.0,94,0.00,,,0.00,VWS V14.01,2013-12-15 07:26:00,
2013-12-15 02:30:00,25.6,24.4,29.61,SSE,159,3.0,5.0,95,0.00,,OVC,0.00,VWS V14.01,2013-12-15 07:30:00,
2013-12-15 02:31:00,25.1,23.6,29.64,South,177,0.0,6.0,94,0.00,,,0.00,VWS V14.01,2013-12-15 07:31:00,
2013-12-15 02:36:00,25.1,23.6,29.65,SW,229,2.0,3.0,94,0.00,,,0.00,VWS V14.01,2013-12-15 07:36:00,
2013-12-15 02:41:00,25.2,23.7,29.64,SW,221,2.0,4.0,94,0.00,,,0.00,VWS V14.01,2013-12-15 07:41:00,
2013-12-15 02:46:00,25.1,23.9,29.64,SW,226,1.0,4.0,95,0.00,,,0.00,VWS V14.01,2013-12-15 07:46:00,
2013-12-15 02:52:00,25.2,24.0,29.64,SW,219,2.0,4.0,95,0.00,,,0.00,VWS V14.01,2013-12-15 07:52:00,
2013-12-15 02:57:00,25.3,24.1,29.64,SSW,205,1.0,4.0,95,0.00,,,0.00,VWS V14.01,2013-12-15 07:57:00,
2013-12-15 03:00:00,25.7,24.2,29.60,SE,145,0.0,6.0,94,0.00,,OVC,0.00,VWS V14.01,2013-12-15 08:00:00,
2013-12-15 03:02:00,25.3,24.1,29.64,SW,219,2.0,4.0,95,0.00,,,0.00,VWS V14.01,2013-12-15 08:02:00,
2013-12-15 03:07:00,25.3,24.1,29.64,SW,219,0.0,2.0,95,0.00,,,0.00,VWS V14.01,2013-12-15 08:07:00,
2013-12-15 03:12:00,25.3,24.1,29.63,SSE,158,1.0,2.0,95,0.00,,,0.00,VWS V14.01,2013-12-15 08:12:00,
2013-12-15 03:17:00,25.4,24.2,29.62,SE,139,2.0,2.0,95,0.00,,,0.00,VWS V14.01,2013-12-15 08:17:00,
2013-12-15 03:22:00,25.5,24.3,29.62,South,176,2.0,4.0,95,0.00,,,0.00,VWS V14.01,2013-12-15 08:22:00,
2013-12-15 03:27:00,25.5,24.3,29.62,SSE,163,2.0,4.0,95,0.00,,,0.00,VWS V14.01,2013-12-15 08:27:00,
2013-12-15 03:30:00,25.7,24.2,29.60,SSW,200,0.0,3.0,94,0.00,,OVC,0.00,VWS V14.01,2013-12-15 08:30:00,
2013-12-15 03:32:00,25.6,24.4,29.61,SSW,195,2.0,5.0,95,0.00,,,0.00,VWS V14.01,2013-12-15 08:32:00,
2013-12-15 03:37:00,25.6,24.1,29.61,SSE,153,2.0,6.0,94,0.00,,,0.00,VWS V14.01,2013-12-15 08:37:00,
2013-12-15 03:42:00,25.7,24.2,29.61,South,173,2.0,6.0,94,0.00,,,0.00,VWS V14.01,2013-12-15 08:42:00,
2013-12-15 03:48:00,25.7,24.2,29.61,SSE,155,3.0,6.0,94,0.00,,,0.00,VWS V14.01,2013-12-15 08:48:00,
2013-12-15 03:53:00,25.7,24.2,29.60,SSW,200,1.0,6.0,94,0.00,,,0.00,VWS V14.01,2013-12-15 08:53:00,
2013-12-15 03:58:00,25.7,24.2,29.61,South,172,2.0,6.0,94,0.00,,,0.00,VWS V14.01,2013-12-15 08:58:00,
2013-12-15 04:00:00,25.7,24.2,29.59,SSE,148,0.0,0.0,94,0.00,,OVC,0.00,VWS V14.01,2013-12-15 09:00:00,
2013-12-15 04:03:00,25.7,24.2,29.61,SE,145,0.0,6.0,94,0.00,,,0.00,VWS V14.01,2013-12-15 09:03:00,
2013-12-15 04:08:00,25.7,24.2,29.60,ESE,107,1.0,3.0,94,0.00,,,0.00,VWS V14.01,2013-12-15 09:08:00,
2013-12-15 04:13:00,25.7,24.2,29.60,SSE,158,1.0,3.0,94,0.00,,,0.00,VWS V14.01,2013-12-15 09:13:00,
2013-12-15 04:18:00,25.7,24.2,29.60,SSW,203,1.0,3.0,94,0.00,,,0.00,VWS V14.01,2013-12-15 09:18:00,
2013-12-15 04:23:00,25.7,24.2,29.60,SSE,153,0.0,3.0,94,0.00,,,0.00,VWS V14.01,2013-12-15 09:23:00,
2013-12-15 04:28:00,25.7,24.2,29.60,SSE,163,0.0,3.0,94,0.00,,,0.00,VWS V14.01,2013-12-15 09:28:00,
2013-12-15 04:30:00,25.6,24.4,29.59,SSE,148,0.0,0.0,95,0.00,,OVC,0.00,VWS V14.01,2013-12-15 09:30:00,
2013-12-15 04:33:00,25.7,24.2,29.60,SSW,200,0.0,0.0,94,0.00,,,0.00,VWS V14.01,2013-12-15 09:33:00,
2013-12-15 04:38:00,25.7,24.2,29.60,SSW,200,0.0,0.0,94,0.00,,,0.00,VWS V14.01,2013-12-15 09:38:00,
2013-12-15 04:44:00,25.7,24.2,29.59,SSE,148,0.0,0.0,94,0.00,,,0.00,VWS V14.01,2013-12-15 09:44:00,
2013-12-15 04:49:00,25.7,24.2,29.59,SSE,149,0.0,0.0,94,0.00,,,0.00,VWS V14.01,2013-12-15 09:49:00,
2013-12-15 04:54:00,25.7,24.2,29.59,SSE,148,0.0,0.0,94,0.00,,,0.00,VWS V14.01,2013-12-15 09:54:00,
2013-12-15 04:59:00,25.7,24.2,29.59,SSE,148,0.0,0.0,94,0.00,,,0.00,VWS V14.01,2013-12-15 09:59:00,
2013-12-15 05:00:00,25.5,24.3,29.60,SSE,148,0.0,0.0,95,0.00,,OVC,0.00,VWS V14.01,2013-12-15 10:00:00,
2013-12-15 05:04:00,25.7,24.2,29.59,SSE,147,0.0,0.0,94,0.00,,,0.00,VWS V14.01,2013-12-15 10:04:00,
2013-12-15 05:09:00,25.7,24.2,29.60,SSE,148,0.0,0.0,94,0.00,,,0.00,VWS V14.01,2013-12-15 10:09:00,
2013-12-15 05:14:00,25.6,24.4,29.59,SSE,148,0.0,0.0,95,0.00,,,0.00,VWS V14.01,2013-12-15 10:14:00,
2013-12-15 05:19:00,25.6,24.4,29.59,SSE,148,0.0,0.0,95,0.00,,,0.00,VWS V14.01,2013-12-15 10:19:00,
2013-12-15 05:24:00,25.6,24.4,29.59,SSE,148,0.0,0.0,95,0.00,,,0.00,VWS V14.01,2013-12-15 10:24:00,
2013-12-15 05:29:00,25.6,24.4,29.59,SSE,148,0.0,0.0,95,0.00,,,0.00,VWS V14.01,2013-12-15 10:29:00,
2013-12-15 05:30:00,25.4,24.2,29.60,West,276,0.0,1.0,95,0.00,,OVC,0.00,VWS V14.01,2013-12-15 10:30:00,
2013-12-15 05:35:00,25.6,24.4,29.59,SSE,148,0.0,0.0,95,0.00,,,0.00,VWS V14.01,2013-12-15 10:35:00,
2013-12-15 05:40:00,25.6,24.4,29.59,SSE,148,0.0,0.0,95,0.00,,,0.00,VWS V14.01,2013-12-15 10:40:00,
2013-12-15 05:45:00,25.5,24.3,29.59,SSE,148,0.0,0.0,95,0.00,,OVC025,0.00,VWS V14.01,2013-12-15 10:45:00,
2013-12-15 05:50:00,25.5,24.3,29.59,SSE,148,0.0,0.0,95,0.00,,OVC025,0.00,VWS V14.01,2013-12-15 10:50:00,
2013-12-15 05:55:00,25.5,24.3,29.59,SSE,148,0.0,0.0,95,0.00,,OVC025,0.00,VWS V14.01,2013-12-15 10:55:00,
2013-12-15 06:00:00,25.5,24.3,29.60,SSE,148,0.0,0.0,95,0.00,,OVC025,0.00,VWS V14.01,2013-12-15 11:00:00,
2013-12-15 06:05:00,25.5,24.3,29.60,SSE,148,0.0,0.0,95,0.00,,OVC025,0.00,VWS V14.01,2013-12-15 11:05:00,
2013-12-15 06:10:00,25.5,24.3,29.60,SSE,149,0.0,0.0,95,0.00,,OVC025,0.00,VWS V14.01,2013-12-15 11:10:00,
2013-12-15 06:15:00,25.5,24.3,29.60,WSW,250,0.0,0.0,95,0.00,,OVC025,0.00,VWS V14.01,2013-12-15 11:15:00,
2013-12-15 06:20:00,25.5,24.3,29.60,WSW,255,0.0,0.0,95,0.00,,OVC025,0.00,VWS V14.01,2013-12-15 11:20:00,
2013-12-15 06:26:00,25.5,24.3,29.60,West,267,0.0,0.0,95,0.00,,OVC025,0.00,VWS V14.01,2013-12-15 11:26:00,
2013-12-15 06:30:00,25.9,24.7,29.62,WSW,253,3.0,3.0,95,0.00,,OVC,0.00,VWS V14.01,2013-12-15 11:30:00,
2013-12-15 06:31:00,25.4,24.2,29.60,West,264,0.0,0.0,95,0.00,,OVC025,0.00,VWS V14.01,2013-12-15 11:31:00,
2013-12-15 06:36:00,25.5,24.3,29.60,WSW,252,1.0,1.0,95,0.00,,OVC025,0.00,VWS V14.01,2013-12-15 11:36:00,
2013-12-15 06:41:00,25.5,24.3,29.61,West,262,1.0,2.0,95,0.00,,OVC025,0.00,VWS V14.01,2013-12-15 11:41:00,
2013-12-15 06:46:00,25.5,24.3,29.61,West,262,0.0,2.0,95,0.00,,OVC020,0.00,VWS V14.01,2013-12-15 11:46:00,
2013-12-15 06:51:00,25.5,24.3,29.60,West,277,1.0,2.0,95,0.00,,OVC020,0.00,VWS V14.01,2013-12-15 11:51:00,
2013-12-15 06:56:00,25.5,24.3,29.60,West,259,1.0,2.0,95,0.00,,OVC020,0.00,VWS V14.01,2013-12-15 11:56:00,
2013-12-15 07:00:00,27.4,25.9,29.64,West,267,2.0,8.0,94,0.00,,OVC,0.00,VWS V14.01,2013-12-15 12:00:00,
2013-12-15 07:01:00,25.5,24.3,29.61,WSW,253,1.0,2.0,95,0.00,,OVC020,0.00,VWS V14.01,2013-12-15 12:01:00,
2013-12-15 07:06:00,25.5,24.3,29.61,West,277,0.0,2.0,95,0.00,,OVC020,0.00,VWS V14.01,2013-12-15 12:06:00,
2013-12-15 07:12:00,25.6,24.4,29.61,West,271,1.0,2.0,95,0.00,,OVC020,0.00,VWS V14.01,2013-12-15 12:12:00,
2013-12-15 07:17:00,25.6,24.4,29.61,West,272,1.0,2.0,95,0.00,,OVC020,0.00,VWS V14.01,2013-12-15 12:17:00,
2013-12-15 07:22:00,25.6,24.4,29.61,West,269,0.0,2.0,95,0.00,,OVC020,0.00,VWS V14.01,2013-12-15 12:22:00,
2013-12-15 07:27:00,25.7,24.5,29.61,WSW,249,1.0,2.0,95,0.00,,OVC020,0.00,VWS V14.01,2013-12-15 12:27:00,
2013-12-15 07:30:00,25.7,24.2,29.66,WSW,245,0.0,6.0,94,0.00,,OVC,0.00,VWS V14.01,2013-12-15 12:30:00,
2013-12-15 07:32:00,25.7,24.5,29.62,West,280,1.0,2.0,95,0.00,,OVC020,0.00,VWS V14.01,2013-12-15 12:32:00,
2013-12-15 07:37:00,26.9,25.9,29.62,WSW,239,1.0,8.0,96,0.00,,OVC020,0.00,VWS V14.01,2013-12-15 12:37:00,
2013-12-15 07:42:00,27.6,26.6,29.62,West,281,2.0,8.0,96,0.00,,OVC020,0.00,VWS V14.01,2013-12-15 12:42:00,
2013-12-15 07:47:00,27.8,26.6,29.63,WSW,253,2.0,8.0,95,0.00,,OVC020,0.00,VWS V14.01,2013-12-15 12:47:00,
2013-12-15 07:52:00,27.8,26.6,29.63,West,276,1.0,8.0,95,0.00,,OVC020,0.00,VWS V14.01,2013-12-15 12:52:00,
2013-12-15 07:58:00,27.6,26.4,29.64,West,274,0.0,8.0,95,0.00,,OVC020,0.00,VWS V14.01,2013-12-15 12:58:00,
2013-12-15 08:00:00,25.0,23.3,29.67,West,271,2.0,5.0,93,0.00,,OVC,0.00,VWS V14.01,2013-12-15 13:00:00,
2013-12-15 08:03:00,27.4,25.9,29.64,West,266,2.0,8.0,94,0.00,,OVC027,0.00,VWS V14.01,2013-12-15 13:03:00,
2013-12-15 08:08:00,27.1,25.6,29.64,West,267,2.0,5.0,94,0.00,,OVC027,0.00,VWS V14.01,2013-12-15 13:08:00,
2013-12-15 08:13:00,26.6,24.9,29.65,WNW,298,2.0,6.0,93,0.00,,OVC027,0.00,VWS V14.01,2013-12-15 13:13:00,
2013-12-15 08:18:00,26.1,24.4,29.65,WSW,238,1.0,6.0,93,0.00,,OVC027,0.00,VWS V14.01,2013-12-15 13:18:00,
2013-12-15 08:23:00,25.9,24.2,29.65,WSW,242,2.0,6.0,93,0.00,,OVC027,0.00,VWS V14.01,2013-12-15 13:23:00,
2013-12-15 08:28:00,25.7,24.2,29.66,West,279,0.0,6.0,94,0.00,,OVC027,0.00,VWS V14.01,2013-12-15 13:28:00,
2013-12-15 08:30:00,25.2,23.5,29.68,West,267,1.0,5.0,93,0.00,,OVC,0.00,VWS V14.01,2013-12-15 13:30:00,
2013-12-15 08:33:00,25.7,24.2,29.66,WSW,245,0.0,0.0,94,0.00,,OVC027,0.00,VWS V14.01,2013-12-15 13:33:00,
2013-12-15 08:38:00,25.5,24.0,29.66,NW,307,1.0,5.0,94,0.00,,OVC027,0.00,VWS V14.01,2013-12-15 13:38:00,
2013-12-15 08:44:00,25.3,23.6,29.66,West,264,1.0,5.0,93,0.00,,OVC027,0.00,VWS V14.01,2013-12-15 13:44:00,
2013-12-15 08:49:00,25.1,23.4,29.67,SW,226,1.0,5.0,93,0.00,,OVC014,0.00,VWS V14.01,2013-12-15 13:49:00,
2013-12-15 08:54:00,25.0,23.3,29.67,West,265,5.0,5.0,93,0.00,,OVC014,0.00,VWS V14.01,2013-12-15 13:54:00,
2013-12-15 08:59:00,25.0,23.3,29.67,WNW,286,1.0,5.0,93,0.00,,OVC014,0.00,VWS V14.01,2013-12-15 13:59:00,
2013-12-15 09:00:00,24.9,22.9,29.69,West,269,0.0,8.0,92,0.00,,OVC,0.00,VWS V14.01,2013-12-15 14:00:00,
2013-12-15 09:04:00,25.0,23.3,29.67,West,273,0.0,2.0,93,0.00,,OVC014,0.00,VWS V14.01,2013-12-15 14:04:00,
2013-12-15 09:09:00,24.9,23.2,29.67,WSW,242,0.0,3.0,93,0.00,,OVC014,0.00,VWS V14.01,2013-12-15 14:09:00,
2013-12-15 09:14:00,25.0,23.3,29.67,West,266,2.0,5.0,93,0.00,,OVC014,0.00,VWS V14.01,2013-12-15 14:14:00,
2013-12-15 09:19:00,25.0,23.3,29.67,WNW,283,1.0,5.0,93,0.00,,OVC014,0.00,VWS V14.01,2013-12-15 14:19:00,
2013-12-15 09:25:00,25.1,23.4,29.67,WSW,245,3.0,5.0,93,0.00,,OVC014,0.00,VWS V14.01,2013-12-15 14:25:00,
2013-12-15 09:30:00,25.1,23.4,29.68,WNW,292,2.0,5.0,93,0.00,,OVC014,0.00,VWS V14.01,2013-12-15 14:30:00,
2013-12-15 09:35:00,25.2,23.5,29.68,SW,219,2.0,2.0,93,0.00,,OVC014,0.00,VWS V14.01,2013-12-15 14:35:00,
2013-12-15 09:40:00,25.2,23.2,29.68,SW,222,2.0,8.0,92,0.00,,OVC014,0.00,VWS V14.01,2013-12-15 14:40:00,
2013-12-15 09:45:00,25.2,23.2,29.68,West,267,1.0,8.0,92,0.00,,OVC010,0.00,VWS V14.01,2013-12-15 14:45:00,
2013-12-15 09:50:00,25.2,23.2,29.69,WSW,245,2.0,8.0,92,0.00,,OVC010,0.00,VWS V14.01,2013-12-15 14:50:00,
2013-12-15 09:55:00,25.0,22.8,29.69,West,281,1.0,8.0,91,0.00,,OVC010,0.00,VWS V14.01,2013-12-15 14:55:00,
2013-12-15 10:00:00,24.9,22.9,29.69,SW,226,1.0,8.0,92,0.00,,OVC010,0.00,VWS V14.01,2013-12-15 15:00:00,
2013-12-15 10:05:00,24.9,22.9,29.70,ENE,64,1.0,2.0,92,0.00,,OVC010,0.00,VWS V14.01,2013-12-15 15:05:00,
2013-12-15 10:10:00,24.7,22.5,29.70,West,271,1.0,3.0,91,0.00,,OVC010,0.00,VWS V14.01,2013-12-15 15:10:00,
2013-12-15 10:16:00,24.5,22.2,29.70,NNW,343,2.0,7.0,91,0.00,,OVC010,0.00,VWS V14.01,2013-12-15 15:16:00,
2013-12-15 10:21:00,24.4,22.2,29.70,WNW,302,0.0,7.0,91,0.00,,OVC010,0.00,VWS V14.01,2013-12-15 15:21:00,
2013-12-15 10:26:00,24.3,22.1,29.70,NNW,330,2.0,7.0,91,0.00,,OVC010,0.00,VWS V14.01,2013-12-15 15:26:00,
2013-12-15 10:30:00,25.2,22.1,29.68,West,259,4.0,6.0,88,0.00,,OVC,0.00,VWS V14.01,2013-12-15 15:30:00,
2013-12-15 10:31:00,24.3,22.1,29.70,West,262,3.0,7.0,91,0.00,,OVC010,0.00,VWS V14.01,2013-12-15 15:31:00,
2013-12-15 10:36:00,24.2,22.0,29.70,West,274,1.0,6.0,91,0.00,,OVC010,0.00,VWS V14.01,2013-12-15 15:36:00,
2013-12-15 10:41:00,24.2,22.0,29.70,West,267,0.0,8.0,91,0.00,,OVC010,0.00,VWS V14.01,2013-12-15 15:41:00,
2013-12-15 10:46:00,24.2,22.0,29.70,SE,125,1.0,8.0,91,0.00,,OVC015,0.00,VWS V14.01,2013-12-15 15:46:00,
2013-12-15 10:51:00,24.2,22.0,29.69,WSW,254,5.0,8.0,91,0.00,,OVC015,0.00,VWS V14.01,2013-12-15 15:51:00,
2013-12-15 10:57:00,24.3,21.8,29.69,West,263,2.0,8.0,90,0.00,,OVC015,0.00,VWS V14.01,2013-12-15 15:57:00,
2013-12-15 11:00:00,25.4,22.1,29.66,West,271,4.0,9.0,87,0.00,,OVC,0.00,VWS V14.01,2013-12-15 16:00:00,
2013-12-15 11:02:00,24.3,21.8,29.69,WNW,290,0.0,8.0,90,0.00,,OVC015,0.00,VWS V14.01,2013-12-15 16:02:00,
2013-12-15 11:07:00,24.5,22.0,29.69,WSW,245,2.0,3.0,90,0.00,,OVC015,0.00,VWS V14.01,2013-12-15 16:07:00,
2013-12-15 11:12:00,24.6,21.8,29.69,West,265,0.0,3.0,89,0.00,,OVC015,0.00,VWS V14.01,2013-12-15 16:12:00,
2013-12-15 11:17:00,24.7,21.9,29.69,WSW,242,1.0,4.0,89,0.00,,OVC015,0.00,VWS V14.01,2013-12-15 16:17:00,
2013-12-15 11:22:00,24.9,22.1,29.69,West,274,2.0,4.0,89,0.00,,OVC015,0.00,VWS V14.01,2013-12-15 16:22:00,
2013-12-15 11:27:00,25.0,22.0,29.69,West,265,2.0,5.0,88,0.00,,OVC015,0.00,VWS V14.01,2013-12-15 16:27:00,
2013-12-15 11:30:00,26.0,22.1,29.67,WSW,257,3.0,10.0,85,0.00,,OVC,0.00,VWS V14.01,2013-12-15 16:30:00,
2013-12-15 11:32:00,25.2,22.1,29.68,West,274,5.0,6.0,88,0.00,,OVC015,0.00,VWS V14.01,2013-12-15 16:32:00,
2013-12-15 11:37:00,25.3,22.0,29.68,West,277,6.0,7.0,87,0.00,,OVC015,0.00,VWS V14.01,2013-12-15 16:37:00,
2013-12-15 11:42:00,25.3,22.0,29.68,West,262,4.0,7.0,87,0.00,,OVC015,0.00,VWS V14.01,2013-12-15 16:42:00,
2013-12-15 11:48:00,25.4,22.1,29.68,West,280,4.0,7.0,87,0.00,,OVC016,0.00,VWS V14.01,2013-12-15 16:48:00,
2013-12-15 11:53:00,25.4,22.1,29.67,WSW,256,6.0,8.0,87,0.00,,OVC016,0.00,VWS V14.01,2013-12-15 16:53:00,
2013-12-15 11:58:00,25.4,22.1,29.67,West,276,5.0,9.0,87,0.00,,OVC016,0.00,VWS V14.01,2013-12-15 16:58:00,
2013-12-15 12:00:00,26.6,21.9,29.67,WSW,253,3.0,10.0,82,0.00,,OVC,0.00,VWS V14.01,2013-12-15 17:00:00,
2013-12-15 12:03:00,25.4,22.1,29.67,WSW,255,6.0,9.0,87,0.00,,OVC016,0.00,VWS V14.01,2013-12-15 17:03:00,
2013-12-15 12:08:00,25.3,21.7,29.67,West,271,5.0,9.0,86,0.00,,OVC016,0.00,VWS V14.01,2013-12-15 17:08:00,
2013-12-15 12:13:00,25.2,21.9,29.66,West,268,5.0,10.0,87,0.00,,OVC016,0.00,VWS V14.01,2013-12-15 17:13:00,
2013-12-15 12:18:00,25.3,22.0,29.66,West,262,3.0,10.0,87,0.00,,OVC016,0.00,VWS V14.01,2013-12-15 17:18:00,
2013-12-15 12:23:00,25.4,22.1,29.66,West,281,3.0,10.0,87,0.00,,OVC016,0.00,VWS V14.01,2013-12-15 17:23:00,
2013-12-15 12:28:00,25.7,22.1,29.67,West,271,3.0,10.0,86,0.00,,OVC016,0.00,VWS V14.01,2013-12-15 17:28:00,
2013-12-15 12:30:00,26.9,21.3,29.67,WNW,297,4.0,11.0,79,0.00,,OVC,0.00,VWS V14.01,2013-12-15 17:30:00,
2013-12-15 12:33:00,26.0,22.1,29.67,WSW,257,3.0,3.0,85,0.00,,OVC016,0.00,VWS V14.01,2013-12-15 17:33:00,
2013-12-15 12:39:00,26.2,22.0,29.67,West,270,2.0,6.0,84,0.00,,OVC016,0.00,VWS V14.01,2013-12-15 17:39:00,
2013-12-15 12:44:00,26.4,22.0,29.67,West,281,2.0,6.0,83,0.00,,OVC016,0.00,VWS V14.01,2013-12-15 17:44:00,
2013-12-15 12:49:00,26.5,21.8,29.67,West,273,1.0,6.0,82,0.00,,OVC021,0.00,VWS V14.01,2013-12-15 17:49:00,
2013-12-15 12:54:00,26.6,21.9,29.67,WSW,255,6.0,9.0,82,0.00,,OVC021,0.00,VWS V14.01,2013-12-15 17:54:00,
2013-12-15 12:59:00,26.5,21.8,29.67,West,267,5.0,10.0,82,0.00,,OVC021,0.00,VWS V14.01,2013-12-15 17:59:00,
2013-12-15 13:00:00,27.3,21.4,29.68,WNW,290,6.0,11.0,78,0.00,,OVC,0.00,VWS V14.01,2013-12-15 18:00:00,
2013-12-15 13:04:00,26.6,21.9,29.67,West,279,4.0,6.0,82,0.00,,OVC021,0.00,VWS V14.01,2013-12-15 18:04:00,
2013-12-15 13:09:00,26.8,21.8,29.67,West,266,8.0,10.0,81,0.00,,OVC021,0.00,VWS V14.01,2013-12-15 18:09:00,
2013-12-15 13:14:00,26.7,21.7,29.67,West,264,7.0,10.0,81,0.00,,OVC021,0.00,VWS V14.01,2013-12-15 18:14:00,
2013-12-15 13:19:00,26.7,21.7,29.67,West,262,6.0,11.0,81,0.00,,OVC021,0.00,VWS V14.01,2013-12-15 18:19:00,
2013-12-15 13:24:00,26.8,21.5,29.67,WSW,254,5.0,11.0,80,0.00,,OVC021,0.00,VWS V14.01,2013-12-15 18:24:00,
2013-12-15 13:30:00,26.8,21.2,29.67,West,262,5.0,11.0,79,0.00,,OVC021,0.00,VWS V14.01,2013-12-15 18:30:00,
2013-12-15 13:35:00,27.0,21.4,29.67,WSW,253,4.0,6.0,79,0.00,,OVC021,0.00,VWS V14.01,2013-12-15 18:35:00,
2013-12-15 13:40:00,27.2,21.6,29.67,West,273,7.0,11.0,79,0.00,,OVC021,0.00,VWS V14.01,2013-12-15 18:40:00,
2013-12-15 13:45:00,27.2,21.9,29.68,West,264,4.0,11.0,80,0.00,,OVC025,0.00,VWS V14.01,2013-12-15 18:45:00,
2013-12-15 13:50:00,27.3,21.4,29.68,NNW,347,4.0,11.0,78,0.00,,OVC025,0.00,VWS V14.01,2013-12-15 18:50:00,
2013-12-15 13:55:00,27.4,21.5,29.68,WNW,283,4.0,11.0,78,0.00,,OVC025,0.00,VWS V14.01,2013-12-15 18:55:00,
2013-12-15 14:00:00,27.2,21.0,29.68,WNW,300,4.0,11.0,77,0.00,,OVC025,0.00,VWS V14.01,2013-12-15 19:00:00,
2013-12-15 14:05:00,27.2,21.0,29.69,WSW,255,5.0,10.0,77,0.00,,OVC025,0.00,VWS V14.01,2013-12-15 19:05:00,
2013-12-15 14:10:00,27.1,21.2,29.69,West,267,3.0,10.0,78,0.00,,OVC025,0.00,VWS V14.01,2013-12-15 19:10:00,
2013-12-15 14:16:00,27.0,21.1,29.69,WSW,253,4.0,10.0,78,0.00,,OVC025,0.00,VWS V14.01,2013-12-15 19:16:00,
2013-12-15 14:21:00,26.9,21.3,29.69,West,269,3.0,10.0,79,0.00,,OVC025,0.00,VWS V14.01,2013-12-15 19:21:00,
2013-12-15 14:26:00,26.7,21.1,29.69,WNW,295,2.0,10.0,79,0.00,,OVC025,0.00,VWS V14.01,2013-12-15 19:26:00,
2013-12-15 14:30:00,25.3,21.1,29.71,WSW,245,3.0,6.0,84,0.00,,OVC,0.00,VWS V14.01,2013-12-15 19:30:00,
2013-12-15 14:31:00,26.4,21.1,29.69,West,270,4.0,10.0,80,0.00,,OVC025,0.00,VWS V14.01,2013-12-15 19:31:00,
2013-12-15 14:36:00,26.3,21.0,29.69,WSW,247,3.0,5.0,80,0.00,,OVC025,0.00,VWS V14.01,2013-12-15 19:36:00,
2013-12-15 14:41:00,26.2,21.2,29.70,West,277,1.0,7.0,81,0.00,,OVC025,0.00,VWS V14.01,2013-12-15 19:41:00,
2013-12-15 14:46:00,26.1,21.1,29.69,West,273,2.0,7.0,81,0.00,,BKN034,0.00,VWS V14.01,2013-12-15 19:46:00,
2013-12-15 14:47:00,26.1,21.4,29.69,West,266,2.0,7.0,82,0.00,,BKN034,0.00,VWS V14.01,2013-12-15 19:47:00,
2013-12-15 14:52:00,26.1,21.4,29.70,WSW,255,3.0,7.0,82,0.00,,BKN034,0.00,VWS V14.01,2013-12-15 19:52:00,
2013-12-15 14:57:00,26.0,21.3,29.70,West,281,1.0,7.0,82,0.00,,BKN034,0.00,VWS V14.01,2013-12-15 19:57:00,
2013-12-15 15:00:00,24.7,21.1,29.71,WNW,295,0.0,3.0,86,0.00,,OVC,0.00,VWS V14.01,2013-12-15 20:00:00,
2013-12-15 15:02:00,25.9,21.2,29.70,West,276,2.0,7.0,82,0.00,,BKN034,0.00,VWS V14.01,2013-12-15 20:02:00,
2013-12-15 15:07:00,25.7,21.0,29.70,West,273,4.0,5.0,82,0.00,,BKN034,0.00,VWS V14.01,2013-12-15 20:07:00,
2013-12-15 15:12:00,25.6,20.9,29.70,WNW,286,2.0,6.0,82,0.00,,BKN034,0.00,VWS V14.01,2013-12-15 20:12:00,
2013-12-15 15:17:00,25.4,21.0,29.70,West,265,2.0,6.0,83,0.00,,BKN034,0.00,VWS V14.01,2013-12-15 20:17:00,
2013-12-15 15:22:00,25.4,21.0,29.70,WSW,242,1.0,6.0,83,0.00,,BKN034,0.00,VWS V14.01,2013-12-15 20:22:00,
2013-12-15 15:28:00,25.3,21.1,29.70,West,259,2.0,6.0,84,0.00,,BKN034,0.00,VWS V14.01,2013-12-15 20:28:00,
2013-12-15 15:30:00,24.7,21.1,29.72,WSW,257,0.0,4.0,86,0.00,,OVC,0.00,VWS V14.01,2013-12-15 20:30:00,
2013-12-15 15:33:00,25.2,21.0,29.71,West,267,0.0,6.0,84,0.00,,BKN034,0.00,VWS V14.01,2013-12-15 20:33:00,
2013-12-15 15:38:00,25.2,21.0,29.71,West,276,0.0,3.0,84,0.00,,BKN034,0.00,VWS V14.01,2013-12-15 20:38:00,
2013-12-15 15:43:00,25.2,21.3,29.71,West,267,0.0,3.0,85,0.00,,BKN034,0.00,VWS V14.01,2013-12-15 20:43:00,
2013-12-15 15:48:00,25.1,21.2,29.71,WSW,256,0.0,3.0,85,0.00,,BKN034,0.00,VWS V14.01,2013-12-15 20:48:00,
2013-12-15 15:53:00,25.0,21.4,29.71,WSW,255,0.0,3.0,86,0.00,,BKN034,0.00,VWS V14.01,2013-12-15 20:53:00,
2013-12-15 15:58:00,24.8,21.2,29.71,West,259,0.0,3.0,86,0.00,,BKN034,0.00,VWS V14.01,2013-12-15 20:58:00,
2013-12-15 16:00:00,24.5,20.9,29.72,West,269,0.0,0.0,86,0.00,,OVC,0.00,VWS V14.01,2013-12-15 21:00:00,
2013-12-15 16:03:00,24.7,21.1,29.71,WSW,252,0.0,0.0,86,0.00,,BKN034,0.00,VWS V14.01,2013-12-15 21:03:00,
2013-12-15 16:08:00,24.7,20.8,29.71,WSW,252,0.0,1.0,85,0.00,,BKN034,0.00,VWS V14.01,2013-12-15 21:08:00,
2013-12-15 16:14:00,24.6,20.7,29.71,West,261,0.0,1.0,85,0.00,,BKN034,0.00,VWS V14.01,2013-12-15 21:14:00,
2013-12-15 16:19:00,24.6,20.7,29.71,West,262,0.0,4.0,85,0.00,,OVC050,0.00,VWS V14.01,2013-12-15 21:19:00,
2013-12-15 16:24:00,24.7,20.8,29.72,West,267,0.0,4.0,85,0.00,,OVC050,0.00,VWS V14.01,2013-12-15 21:24:00,
2013-12-15 16:29:00,24.7,20.8,29.72,West,262,0.0,4.0,85,0.00,,OVC050,0.00,VWS V14.01,2013-12-15 21:29:00,
2013-12-15 16:30:00,24.2,21.2,29.72,West,269,0.0,0.0,88,0.00,,OVC,0.00,VWS V14.01,2013-12-15 21:30:00,
2013-12-15 16:34:00,24.7,21.1,29.72,WSW,257,0.0,0.0,86,0.00,,OVC050,0.00,VWS V14.01,2013-12-15 21:34:00,
2013-12-15 16:39:00,24.7,21.1,29.72,West,280,0.0,0.0,86,0.00,,OVC050,0.00,VWS V14.01,2013-12-15 21:39:00,
2013-12-15 16:44:00,24.6,21.0,29.72,West,279,0.0,0.0,86,0.00,,OVC050,0.00,VWS V14.01,2013-12-15 21:44:00,
2013-12-15 16:49:00,24.6,21.0,29.72,West,269,0.0,0.0,86,0.00,,OVC065,0.00,VWS V14.01,2013-12-15 21:49:00,
2013-12-15 16:54:00,24.6,21.0,29.72,West,269,0.0,0.0,86,0.00,,OVC065,0.00,VWS V14.01,2013-12-15 21:54:00,
2013-12-15 16:59:00,24.5,20.9,29.72,West,270,0.0,0.0,86,0.00,,OVC065,0.00,VWS V14.01,2013-12-15 21:59:00,
2013-12-15 17:00:00,23.9,21.4,29.72,ESE,111,0.0,0.0,90,0.00,,OVC,0.00,VWS V14.01,2013-12-15 22:00:00,
2013-12-15 17:05:00,24.5,20.9,29.72,West,269,0.0,0.0,86,0.00,,OVC065,0.00,VWS V14.01,2013-12-15 22:05:00,
2013-12-15 17:10:00,24.4,21.1,29.72,West,270,0.0,0.0,87,0.00,,OVC065,0.00,VWS V14.01,2013-12-15 22:10:00,
2013-12-15 17:15:00,24.4,21.1,29.72,West,270,0.0,0.0,87,0.00,,OVC065,0.00,VWS V14.01,2013-12-15 22:15:00,
2013-12-15 17:20:00,24.3,21.3,29.72,West,270,0.0,0.0,88,0.00,,OVC065,0.00,VWS V14.01,2013-12-15 22:20:00,
2013-12-15 17:25:00,24.2,21.2,29.72,West,270,0.0,0.0,88,0.00,,OVC065,0.00,VWS V14.01,2013-12-15 22:25:00,
2013-12-15 17:30:00,24.2,21.2,29.72,West,270,0.0,0.0,88,0.00,,OVC065,0.00,VWS V14.01,2013-12-15 22:30:00,
2013-12-15 17:35:00,24.1,21.3,29.72,West,269,0.0,0.0,89,0.00,,OVC065,0.00,VWS V14.01,2013-12-15 22:35:00,
2013-12-15 17:40:00,24.1,21.3,29.72,West,270,0.0,0.0,89,0.00,,OVC065,0.00,VWS V14.01,2013-12-15 22:40:00,
2013-12-15 17:45:00,24.0,21.2,29.72,West,270,0.0,0.0,89,0.00,,,0.00,VWS V14.01,2013-12-15 22:45:00,
2013-12-15 17:50:00,24.0,21.2,29.72,West,269,0.0,0.0,89,0.00,,,0.00,VWS V14.01,2013-12-15 22:50:00,
2013-12-15 17:55:00,24.0,21.5,29.72,ESE,112,0.0,0.0,90,0.00,,,0.00,VWS V14.01,2013-12-15 22:55:00,
2013-12-15 18:00:00,23.9,21.4,29.72,ESE,113,0.0,0.0,90,0.00,,,0.00,VWS V14.01,2013-12-15 23:00:00,
2013-12-15 18:06:00,23.9,21.7,29.72,ESE,111,0.0,0.0,91,0.00,,,0.00,VWS V14.01,2013-12-15 23:06:00,
2013-12-15 18:11:00,23.9,21.7,29.72,ESE,113,0.0,0.0,91,0.00,,,0.00,VWS V14.01,2013-12-15 23:11:00,
2013-12-15 18:16:00,23.9,21.7,29.72,ESE,112,0.0,0.0,91,0.00,,,0.00,VWS V14.01,2013-12-15 23:16:00,
2013-12-15 18:21:00,23.9,21.7,29.72,ESE,113,0.0,0.0,91,0.00,,,0.00,VWS V14.01,2013-12-15 23:21:00,
2013-12-15 18:26:00,23.8,21.6,29.72,ESE,111,0.0,0.0,91,0.00,,,0.00,VWS V14.01,2013-12-15 23:26:00,
2013-12-15 18:30:00,24.1,22.6,29.73,NNE,20,0.0,2.0,94,0.00,,OVC,0.00,VWS V14.01,2013-12-15 23:30:00,
2013-12-15 18:31:00,23.7,21.7,29.72,ESE,111,0.0,0.0,92,0.00,,,0.00,VWS V14.01,2013-12-15 23:31:00,
2013-12-15 18:36:00,23.8,21.8,29.72,ESE,111,0.0,0.0,92,0.00,,,0.00,VWS V14.01,2013-12-15 23:36:00,
2013-12-15 18:41:00,23.8,21.8,29.72,ENE,58,0.0,0.0,92,0.00,,,0.00,VWS V14.01,2013-12-15 23:41:00,
2013-12-15 18:46:00,23.8,21.8,29.73,NNW,346,0.0,0.0,92,0.00,,,0.00,VWS V14.01,2013-12-15 23:46:00,
2013-12-15 18:52:00,23.9,22.2,29.73,NW,324,2.0,3.0,93,0.00,,,0.00,VWS V14.01,2013-12-15 23:52:00,
2013-12-15 18:57:00,23.8,22.1,29.73,NW,324,0.0,3.0,93,0.00,,,0.00,VWS V14.01,2013-12-15 23:57:00,
2013-12-15 19:00:00,24.3,22.8,29.73,NNE,15,2.0,3.0,94,0.00,,OVC,0.00,VWS V14.01,2013-12-16 00:00:00,
2013-12-15 19:02:00,23.8,22.1,29.73,NNW,346,0.0,3.0,93,0.00,,,0.00,VWS V14.01,2013-12-16 00:02:00,
2013-12-15 19:07:00,23.9,22.2,29.73,NW,318,0.0,1.0,93,0.00,,,0.00,VWS V14.01,2013-12-16 00:07:00,
2013-12-15 19:12:00,24.0,22.3,29.73,NW,317,0.0,1.0,93,0.00,,,0.00,VWS V14.01,2013-12-16 00:12:00,
2013-12-15 19:17:00,24.0,22.3,29.73,NW,310,0.0,2.0,93,0.00,,,0.00,VWS V14.01,2013-12-16 00:17:00,
2013-12-15 19:22:00,24.0,22.5,29.73,NW,326,0.0,2.0,94,0.00,,,0.00,VWS V14.01,2013-12-16 00:22:00,
2013-12-15 19:27:00,24.0,22.5,29.73,NNW,347,0.0,2.0,94,0.00,,,0.00,VWS V14.01,2013-12-16 00:27:00,
2013-12-15 19:30:00,24.3,22.8,29.75,West,278,0.0,4.0,94,0.00,,OVC,0.00,VWS V14.01,2013-12-16 00:30:00,
2013-12-15 19:32:00,24.1,22.6,29.73,NE,48,0.0,2.0,94,0.00,,,0.00,VWS V14.01,2013-12-16 00:32:00,
2013-12-15 19:38:00,24.2,22.7,29.73,WNW,298,0.0,1.0,94,0.00,,,0.00,VWS V14.01,2013-12-16 00:38:00,
2013-12-15 19:43:00,24.2,22.7,29.74,North,8,0.0,1.0,94,0.00,,,0.00,VWS V14.01,2013-12-16 00:43:00,
2013-12-15 19:48:00,24.3,22.8,29.74,North,9,0.0,1.0,94,0.00,,,0.00,VWS V14.01,2013-12-16 00:48:00,
2013-12-15 19:53:00,24.3,22.8,29.73,WNW,290,1.0,1.0,94,0.00,,,0.00,VWS V14.01,2013-12-16 00:53:00,
2013-12-15 19:58:00,24.4,22.9,29.73,WNW,302,1.0,3.0,94,0.00,,,0.00,VWS V14.01,2013-12-16 00:58:00,
2013-12-15 20:00:00,23.4,21.7,29.75,West,267,0.0,7.0,93,0.00,,OVC,0.00,VWS V14.01,2013-12-16 01:00:00,
2013-12-15 20:03:00,24.3,22.8,29.73,NNE,20,1.0,2.0,94,0.00,,,0.00,VWS V14.01,2013-12-16 01:03:00,
2013-12-15 20:08:00,24.3,22.8,29.74,NNW,329,0.0,3.0,94,0.00,,,0.00,VWS V14.01,2013-12-16 01:08:00,
2013-12-15 20:13:00,24.4,22.9,29.74,NNW,335,0.0,3.0,94,0.00,,,0.00,VWS V14.01,2013-12-16 01:13:00,
2013-12-15 20:19:00,24.4,22.9,29.74,NNW,340,1.0,3.0,94,0.00,,,0.00,VWS V14.01,2013-12-16 01:19:00,
2013-12-15 20:24:00,24.4,22.9,29.74,WNW,300,2.0,4.0,94,0.00,,,0.00,VWS V14.01,2013-12-16 01:24:00,
2013-12-15 20:29:00,24.3,22.8,29.75,West,267,0.0,4.0,94,0.00,,,0.00,VWS V14.01,2013-12-16 01:29:00,
2013-12-15 20:30:00,22.4,20.2,29.78,West,274,1.0,4.0,91,0.00,,OVC,0.00,VWS V14.01,2013-12-16 01:30:00,
2013-12-15 20:34:00,24.2,22.7,29.75,West,269,0.0,1.0,94,0.00,,,0.00,VWS V14.01,2013-12-16 01:34:00,
2013-12-15 20:39:00,24.1,22.6,29.75,West,262,0.0,4.0,94,0.00,,,0.00,VWS V14.01,2013-12-16 01:39:00,
2013-12-15 20:44:00,23.9,22.2,29.75,West,264,1.0,4.0,93,0.00,,,0.00,VWS V14.01,2013-12-16 01:44:00,
2013-12-15 20:49:00,23.8,22.3,29.75,West,267,0.0,4.0,94,0.00,,OVC039,0.00,VWS V14.01,2013-12-16 01:49:00,
2013-12-15 20:54:00,23.7,22.2,29.75,West,267,2.0,7.0,94,0.00,,OVC039,0.00,VWS V14.01,2013-12-16 01:54:00,
2013-12-15 21:00:00,23.5,21.8,29.75,West,279,2.0,7.0,93,0.00,,OVC039,0.00,VWS V14.01,2013-12-16 02:00:00,
2013-12-15 21:05:00,23.4,21.7,29.76,West,264,1.0,2.0,93,0.00,,OVC039,0.00,VWS V14.01,2013-12-16 02:05:00,
2013-12-15 21:10:00,23.4,21.7,29.76,NNW,345,3.0,3.0,93,0.00,,OVC039,0.00,VWS V14.01,2013-12-16 02:10:00,
2013-12-15 21:15:00,23.4,21.7,29.76,West,273,0.0,3.0,93,0.00,,OVC039,0.00,VWS V14.01,2013-12-16 02:15:00,
2013-12-15 21:20:00,23.2,21.5,29.77,NNE,32,2.0,3.0,93,0.00,,OVC039,0.00,VWS V14.01,2013-12-16 02:20:00,
2013-12-15 21:25:00,22.9,21.2,29.78,WNW,283,2.0,4.0,93,0.00,,OVC039,0.00,VWS V14.01,2013-12-16 02:25:00,
2013-12-15 21:30:00,22.6,20.6,29.78,WSW,248,0.0,4.0,92,0.00,,OVC039,0.00,VWS V14.01,2013-12-16 02:30:00,
2013-12-15 21:36:00,22.2,20.0,29.78,West,267,1.0,3.0,91,0.00,,OVC039,0.00,VWS V14.01,2013-12-16 02:36:00,
2013-12-15 21:41:00,22.0,19.3,29.78,West,262,2.0,5.0,89,0.00,,OVC039,0.00,VWS V14.01,2013-12-16 02:41:00,
2013-12-15 21:46:00,22.0,18.5,29.79,West,271,5.0,7.0,86,0.00,,,0.00,VWS V14.01,2013-12-16 02:46:00,
2013-12-15 21:51:00,22.1,18.0,29.79,West,262,4.0,7.0,84,0.00,,,0.00,VWS V14.01,2013-12-16 02:51:00,
2013-12-15 21:56:00,22.2,17.5,29.79,West,270,3.0,7.0,82,0.00,,,0.00,VWS V14.01,2013-12-16 02:56:00,
2013-12-15 22:00:00,21.7,14.1,29.81,West,273,4.0,9.0,72,0.00,,OVC,0.00,VWS V14.01,2013-12-16 03:00:00,
2013-12-15 22:02:00,22.3,16.8,29.79,West,274,3.0,7.0,79,0.00,,,0.00,VWS V14.01,2013-12-16 03:02:00,
2013-12-15 22:07:00,22.3,16.2,29.79,West,277,1.0,4.0,77,0.00,,,0.00,VWS V14.01,2013-12-16 03:07:00,
2013-12-15 22:12:00,22.2,15.8,29.79,West,260,2.0,5.0,76,0.00,,,0.00,VWS V14.01,2013-12-16 03:12:00,
2013-12-15 22:17:00,22.2,14.9,29.80,West,269,4.0,7.0,73,0.00,,,0.00,VWS V14.01,2013-12-16 03:17:00,
2013-12-15 22:22:00,22.1,14.8,29.80,West,260,4.0,7.0,73,0.00,,,0.00,VWS V14.01,2013-12-16 03:22:00,
2013-12-15 22:27:00,22.0,14.4,29.80,West,277,2.0,7.0,72,0.00,,,0.00,VWS V14.01,2013-12-16 03:27:00,
2013-12-15 22:30:00,20.9,12.0,29.83,West,273,4.0,9.0,68,0.00,,OVC,0.00,VWS V14.01,2013-12-16 03:30:00,
2013-12-15 22:32:00,22.0,14.4,29.80,WSW,257,2.0,7.0,72,0.00,,,0.00,VWS V14.01,2013-12-16 03:32:00,
2013-12-15 22:37:00,21.9,14.0,29.80,West,266,4.0,6.0,71,0.00,,,0.00,VWS V14.01,2013-12-16 03:37:00,
2013-12-15 22:40:00,22.0,14.1,29.80,West,277,2.0,9.0,71,0.00,,,0.00,VWS V14.01,2013-12-16 03:40:00,
2013-12-15 22:46:00,21.9,14.0,29.81,WNW,283,3.0,9.0,71,0.00,,OVC065,0.00,VWS V14.01,2013-12-16 03:46:00,
2013-12-15 22:51:00,21.8,14.2,29.81,WSW,257,3.0,9.0,72,0.00,,OVC065,0.00,VWS V14.01,2013-12-16 03:51:00,
2013-12-15 22:56:00,21.7,14.1,29.81,West,262,4.0,9.0,72,0.00,,OVC065,0.00,VWS V14.01,2013-12-16 03:56:00,
2013-12-15 23:00:00,20.2,11.7,29.84,WNW,290,2.0,9.0,69,0.00,,OVC,0.00,VWS V14.01,2013-12-16 04:00:00,
2013-12-15 23:01:00,21.7,14.1,29.81,West,270,2.0,9.0,72,0.00,,OVC065,0.00,VWS V14.01,2013-12-16 04:01:00,
2013-12-15 23:06:00,21.6,14.3,29.81,West,259,2.0,5.0,73,0.00,,OVC065,0.00,VWS V14.01,2013-12-16 04:06:00,
2013-12-15 23:11:00,21.6,14.3,29.82,WSW,257,4.0,6.0,73,0.00,,OVC065,0.00,VWS V14.01,2013-12-16 04:11:00,
2013-12-15 23:16:00,21.6,13.7,29.82,West,269,2.0,6.0,71,0.00,,OVC065,0.00,VWS V14.01,2013-12-16 04:16:00,
2013-12-15 23:21:00,21.4,13.1,29.82,West,271,3.0,6.0,70,0.00,,OVC065,0.00,VWS V14.01,2013-12-16 04:21:00,
2013-12-15 23:26:00,21.1,12.5,29.83,WSW,253,5.0,8.0,69,0.00,,OVC065,0.00,VWS V14.01,2013-12-16 04:26:00,
2013-12-15 23:30:00,20.3,12.1,29.84,WNW,302,5.0,9.0,70,0.00,,OVC,0.00,VWS V14.01,2013-12-16 04:30:00,
2013-12-15 23:32:00,21.0,12.1,29.83,West,260,4.0,9.0,68,0.00,,OVC065,0.00,VWS V14.01,2013-12-16 04:32:00,
2013-12-15 23:37:00,20.9,12.0,29.83,West,271,4.0,6.0,68,0.00,,OVC065,0.00,VWS V14.01,2013-12-16 04:37:00,
2013-12-15 23:42:00,20.7,11.8,29.83,WNW,283,4.0,9.0,68,0.00,,OVC065,0.00,VWS V14.01,2013-12-16 04:42:00,
2013-12-15 23:47:00,20.6,11.7,29.83,West,264,2.0,9.0,68,0.00,,OVC065,0.00,VWS V14.01,2013-12-16 04:47:00,
2013-12-15 23:52:00,20.3,11.8,29.83,WNW,290,2.0,9.0,69,0.00,,OVC065,0.00,VWS V14.01,2013-12-16 04:52:00,
2013-12-15 23:57:00,20.2,11.7,29.84,WSW,250,3.0,9.0,69,0.00,,OVC065,0.00,VWS V14.01,2013-12-16 04:57:00,